Volver al catálogo

HULIANWANG DIGUI-159

ActivoComunicacionesLEO
NORAD 68133·PAYLOAD·🇨🇳 China

Lanzado Mar 12, 2026 desde Wenchang Space Launch Site

Loading…

Próximos Pases (próximas 24 horas)

TLE

ActualizadoSource: Space-Track

Época: Sep 14, 2026, 14:01 UTC

1 68133U 26047E   26257.58419218 -.00000099  00000-0  53308-4 0  9992
2 68133  50.0010  95.4438 0001231  62.1908 297.9089 13.29324293 24968

Sigue HULIANWANG DIGUI-159 en tiempo real con AllMySat

Download on the App Store